Weather History for KPVC - February, 2013

Change the Weather History Date:

Thursday, February 28, 2013

  Actual Average Record
Temperature  
Mean Temperature 38 °F -  
Max Temperature 42 °F 38 °F 51 °F (2011)
Min Temperature 35 °F 27 °F 8 °F (2014)
Degree Days  
Heating Degree Days 26    
Moisture  
Dew Point 36 °F    
Average Humidity 95    
Maximum Humidity 100    
Minimum Humidity 87    
Precipitation  
Precipitation 0.00 in - - ()
Sea Level Pressure  
Sea Level Pressure 29.61 in    
Wind  
Wind Speed 9 mph (West)    
Max Wind Speed 16 mph    
Max Gust Speed 22 mph    
Visibility 9 miles    
Events      
Averages and records for this station are not official NWS values.
T = Trace of Precipitation, MM = Missing Value Source: NWS Daily Summary

Daily Weather History Graph

Daily Weather History Graph

Search for Another Location

Airport or City:

Trip Planner

Search our weather history database for the weather conditions in past years. The results will help you decide how hot, cold, wet, or windy it might be!

Date:

Astronomy

Feb. 28, 2013 Rise Set
Actual Time 6:17 AM EST 5:30 PM EST
Civil Twilight 5:49 AM EST 5:58 PM EST
Nautical Twilight 5:16 AM EST 6:30 PM EST
Astronomical Twilight 4:44 AM EST 7:02 PM EST
Moon 8:58 PM EST (2/28) 7:20 AM EST (2/28)
Length of Visible Light 12h 08m
Length of Day
11h 12m
Waning Gibbous, 91% of the Moon is Illuminated
Feb 28
Waning Gibbous
Mar 4
Last Quarter
Mar 11
New
Mar 19
First Quarter
Mar 27
Full

Hourly Weather History & Observations

Time (EST) Temp. Windchill Dew Point Humidity Pressure Visibility Wind Dir Wind Speed Gust Speed Precip Events Conditions
12:15 AM 42.8 °F 35.1 °F 41.0 °F 93% 29.58 in 1.5 mi SW 16.1 mph 21.9 mph N/A   Overcast
12:55 AM 41.0 °F 33.9 °F 39.2 °F 93% 29.58 in 3.0 mi SW 12.7 mph - N/A   Overcast
1:15 AM 39.2 °F 33.0 °F 37.4 °F 93% 29.57 in 2.0 mi SSW 9.2 mph - N/A   Overcast
1:35 AM 41.0 °F 34.3 °F 39.2 °F 93% 29.58 in 2.5 mi SSW 11.5 mph - N/A   Overcast
2:15 AM 41.0 °F 35.2 °F 39.2 °F 93% 29.59 in 10.0 mi SSW 9.2 mph - N/A   Overcast
2:35 AM 39.2 °F 33.0 °F 39.2 °F 100% 29.58 in 10.0 mi SSW 9.2 mph - N/A   Overcast
2:55 AM 39.2 °F 33.6 °F 39.2 °F 100% 29.58 in 10.0 mi SSW 8.1 mph - N/A   Overcast
3:15 AM 39.2 °F 34.2 °F 39.2 °F 100% 29.58 in 7.0 mi SW 6.9 mph - N/A   Overcast
3:35 AM 39.2 °F 34.2 °F 39.2 °F 100% 29.59 in 7.0 mi SW 6.9 mph - N/A   Overcast
4:15 AM 39.2 °F 33.6 °F 39.2 °F 100% 29.61 in 1.5 mi West 8.1 mph - N/A   Overcast
4:55 AM 37.4 °F 32.1 °F 35.6 °F 93% 29.61 in 5.0 mi West 6.9 mph - N/A   Overcast
5:35 AM 37.4 °F 30.8 °F 37.4 °F 100% 29.62 in 10.0 mi WSW 9.2 mph - N/A   Overcast
5:55 AM 37.4 °F 30.3 °F 37.4 °F 100% 29.63 in 10.0 mi West 10.4 mph - N/A   Overcast
6:35 AM 37.4 °F 32.1 °F 37.4 °F 100% 29.64 in 10.0 mi West 6.9 mph - N/A   Overcast
6:55 AM 35.6 °F 29.2 °F 33.8 °F 93% 29.64 in 10.0 mi West 8.1 mph - N/A   Overcast
7:15 AM 35.6 °F 29.2 °F 33.8 °F 93% 29.63 in 10.0 mi West 8.1 mph - N/A   Overcast
7:35 AM 35.6 °F 29.2 °F 33.8 °F 93% 29.64 in 10.0 mi WNW 8.1 mph - N/A   Overcast
7:55 AM 35.6 °F 29.9 °F 35.6 °F 100% 29.65 in 10.0 mi West 6.9 mph - N/A   Overcast
8:15 AM 35.6 °F 30.7 °F 33.8 °F 93% 29.65 in 10.0 mi WSW 5.8 mph - N/A   Overcast
8:35 AM 37.4 °F 32.1 °F 35.6 °F 93% 29.66 in 10.0 mi WSW 6.9 mph - N/A   Overcast
8:55 AM 35.6 °F 29.9 °F 33.8 °F 93% 29.66 in 10.0 mi West 6.9 mph - N/A   Overcast
9:15 AM 37.4 °F 32.8 °F 35.6 °F 93% 29.65 in 10.0 mi WNW 5.8 mph - N/A   Overcast
9:55 AM 35.6 °F 30.7 °F 35.6 °F 100% 29.65 in 10.0 mi West 5.8 mph - N/A   Overcast
10:15 AM 35.6 °F 29.9 °F 35.6 °F 100% 29.65 in 10.0 mi West 6.9 mph - N/A   Overcast
10:35 AM 37.4 °F 32.1 °F 35.6 °F 93% 29.64 in 10.0 mi West 6.9 mph - N/A   Overcast
10:55 AM 37.4 °F 31.4 °F 35.6 °F 93% 29.63 in 10.0 mi WNW 8.1 mph - N/A   Overcast
11:15 AM 37.4 °F 30.8 °F 35.6 °F 93% 29.63 in 10.0 mi West 9.2 mph - N/A   Overcast
11:35 AM 37.4 °F 31.4 °F 35.6 °F 93% 29.63 in 10.0 mi West 8.1 mph - N/A   Overcast
12:15 PM 37.4 °F 32.8 °F 35.6 °F 93% 29.61 in 10.0 mi WNW 5.8 mph - N/A   Overcast
12:35 PM 37.4 °F 32.8 °F 35.6 °F 93% 29.61 in 10.0 mi WNW 5.8 mph - N/A   Overcast
12:55 PM 37.4 °F 32.8 °F 35.6 °F 93% 29.60 in 10.0 mi WNW 5.8 mph - N/A   Overcast
1:15 PM 37.4 °F 32.1 °F 33.8 °F 87% 29.59 in 10.0 mi WNW 6.9 mph - N/A   Overcast
1:35 PM 37.4 °F 31.4 °F 35.6 °F 93% 29.59 in 10.0 mi WNW 8.1 mph - N/A   Overcast
1:55 PM 37.4 °F 33.8 °F 35.6 °F 93% 29.58 in 10.0 mi WNW 4.6 mph - N/A   Overcast
2:35 PM 37.4 °F 34.9 °F 35.6 °F 93% 29.57 in 10.0 mi NNW 3.5 mph - N/A   Overcast